Voltar ao catálogo

DELTA 1 DEB

AtivoPO
NORAD 26845·DEBRIS·🇺🇸 United States

Lançado Jun 12, 1975 de Vandenberg Space Force Base

Loading…

Próximas Passagens (próximas 24 horas)

TLE

AtualizadoSource: Space-Track

Época: Sep 13, 2026, 15:49 UTC

1 26845U 75052KZ  26256.65958356  .00000192  00000-0  81307-3 0  9996
2 26845  99.1861 143.0986 0439404  52.6581 336.8680 12.65503360469591

Acompanhe DELTA 1 DEB em tempo real com AllMySat

Download on the App Store